Regional Weather Roundup
Issued by NWS Columbia, SC

Home | Current Version | Previous Version | Text Only | Print | Product List | Glossary On
Versions: 1 2 3 4 5 6 7 8 9 10 11 12 13 14 15 16 17 18 19 20 21 22 23 24 25 26 27 28 29 30 31 32 33 34 35 36 37 38 39 40 41 42 43 44 45 46 47 48 49 50
264
ASUS42 KCAE 241910
RWRCAE
REGIONAL WEATHER ROUNDUP
NATIONAL WEATHER SERVICE COLUMBIA SC
300 PM EDT SUN JUL 24 2016

NOTE: "FAIR" INDICATES FEW OR NO CLOUDS BELOW 12,000 FEET WITH NO
SIGNIFICANT WEATHER AND/OR OBSTRUCTIONS TO VISIBILITY.

NOT ALL STATIONS ARE QUALITY CONTROLLED BY THE NATIONAL
WEATHER SERVICE. USE DATA WITH CAUTION...ESPECIALLY
DEWPOINT OBSERVATIONS.

SCZ001>056-GAZ040-063>065-077-242000-
...UPSTATE SOUTH CAROLINA...

CITY           SKY/WX    TMP DP  RH WIND       PRES   REMARKS
ANDERSON       MOSUNNY   95  67  39 VRB6      30.03F HX  99
LIBERTY        CLEAR     94  71  47 SW8       30.03F HX 101
SPARTANBURG    SUNNY     91  66  43 W5        30.02F
CLEMSON        MOSUNNY   96  66  37 VRB7      30.04F HX  99
GREENVILLE     MOSUNNY   95  65  37 W8        30.04F HX  97
GREENWOOD      MOSUNNY   95  68  41 SW7       30.03F HX  99
GREER          SUNNY     94  66  39 VRB3      30.02F HX  97
ROCK HILL      SUNNY     94  68  42 CALM      30.03F HX  98
CHESTER        CLEAR     91  68  46 W3        30.03F HX  95
LAURENS        PTCLDY    93  70  46 SW9       30.02F HX  99


...CENTRAL SOUTH CAROLINA...

CITY           SKY/WX    TMP DP  RH WIND       PRES   REMARKS
COLUMBIA APT   LGT RAIN  95  69  42 S6        29.99F HX 100
COLUMBIA OWENS SUNNY     95  71  45 S5          N/A  HX 102
MCENTIRE ANGB  MOSUNNY   96  68  40 VRB7      30.01F HX 100
ORANGEBURG     SUNNY     95  69  42 VRB3      30.01F HX 100
SUMTER SHAW    MOSUNNY   95  70  44 SW3       29.99F HAZE    HX 101
NEWBERRY       CLEAR     93  68  43 SW6       30.05F HX  97
AIKEN          FAIR      93  68  43 W5        30.05F HX  97
MANNING        FAIR      93  72  49 SW6       30.01F HX 100
LANCASTER      CLEAR     95  66  38 SW6       30.02F HX  98
WINNSBORO      CLEAR     95  68  41 W6        30.02F HX  99


...EASTERN AND COASTAL SOUTH CAROLINA...

CITY           SKY/WX    TMP DP  RH WIND       PRES   REMARKS
MYRTLE BEACH   MOSUNNY   88  73  62 S15       30.05S HX  96
N MYRTLE BCH   SUNNY     88  78  72 S16       30.03F HX 101
CONWAY         CLOUDY    88  73  62 SE8       30.02S HX  96
MARION           N/A     91  73  55 N6        30.01F HX 100
HARTSVILLE     FAIR      93  70  46 SW3       30.00F HX  99
FLORENCE       MOSUNNY   94  70  45 VRB3      30.01F HX 100
DARLINGTON     SUNNY     92  76  59 SW8       30.01F HX 104
CHARLESTON APT CLOUDY    92  73  53 S7        30.02F HX 100
MOUNT PLEASANT FAIR      88  79  74 S8        30.04R HX 102
WALTERBORO     PTCLDY    97  72  44 S7        30.02F HX 105
BEAUFORT       MOSUNNY   96  71  44 CALM      30.02F HX 103


...EASTERN GEORGIA...

CITY           SKY/WX    TMP DP  RH WIND       PRES   REMARKS
AUGUSTA BUSH F PTSUNNY   95  69  42 NW5       30.00F HX 100
AUGUSTA DANIEL MOSUNNY   98  69  38 S10G16    30.02F HX 104
THOMSON        MOSUNNY   99  70  38 SW3       30.06F HX 106
WASHINGTON       N/A     97  73  46 S8        30.03F HX 107
CLAXTON        MOCLDY    94  71  47 CALM      30.01F HX 101
STATESBORO     SUNNY     95  72  46 CALM      30.02F HX 103
SAVANNAH       PTSUNNY   97  68  38 N6        30.01F HX 102


...SOUTHERN NORTH CAROLINA...

CITY           SKY/WX    TMP DP  RH WIND       PRES   REMARKS
CHARLOTTE      PTSUNNY   95  66  38 W7        30.03F HX  98
MONROE         MOSUNNY   94  68  42 S6        30.02F HX  98
WADESBORO      CLEAR     96  68  40 S5        30.00F HX 100
ROCKINGHAM     CLEAR     92  74  55 W3        30.01F HX 102
RUTHERFORDTON    N/A     91  71  51 S3        30.05F HX  97
ASHEVILLE      SUNNY     89  64  43 MISG      30.11F

$$




USA.gov is the U.S. government's official web portal to all federal, state and local government web resources and services.